Log Lane Village, CO

11:11 AM MDT on August 31, 2016 (GMT -0600)
Fort Morgan

Weather History for KFMM - April, 2014

Change the Weather History Date:

Thursday, April 24, 2014

  Actual Average (KAKO) Record (KAKO)
Temperature  
Mean Temperature 50 °F 50 °F  
Max Temperature 63 °F 63 °F 90 °F (2012)
Min Temperature 37 °F 36 °F 21 °F (1958)
Degree Days  
Heating Degree Days 15    
Month to date heating degree days  
Cooling Degree Days 0    
Month to date cooling degree days  
Moisture  
Dew Point 18 °F    
Average Humidity 28    
Maximum Humidity 45    
Minimum Humidity 13    
Precipitation  
Precipitation 0.00 in 0.07 in 1.16 in (1973)
Month to date precipitation 1.23  
Year to date precipitation 2.84  
Sea Level Pressure  
Sea Level Pressure 29.94 in    
Wind  
Wind Speed 17 mph (West)    
Max Wind Speed 29 mph    
Max Gust Speed 34 mph    
Visibility 10 miles    
Events      
T = Trace of Precipitation, MM = Missing Value Source: NWS Daily Summary

Daily Weather History Graph

Daily Weather History Graph

Search for Another Location

Airport or City:

Trip Planner

Search our weather history database for the weather conditions in past years. The results will help you decide how hot, cold, wet, or windy it might be!

Date:

Astronomy

Apr. 24, 2014 Rise Set
Actual Time 6:03 AM MDT 7:43 PM MDT
Civil Twilight 5:34 AM MDT 8:12 PM MDT
Nautical Twilight 5:00 AM MDT 8:47 PM MDT
Astronomical Twilight 4:22 AM MDT 9:24 PM MDT
Moon 3:17 AM MDT (4/24) 3:01 PM MDT (4/24)
Length of Visible Light 14h 37m
Length of Day
13h 39m
Waning Crescent, 24% of the Moon is Illuminated
Apr 24
Waning Crescent
Apr 29
New
May 6
First Quarter
May 14
Full
May 21
Last Quarter

Hourly Weather History & Observations

Time (MDT) Temp. Windchill Dew Point Humidity Pressure Visibility Wind Dir Wind Speed Gust Speed Precip Events Conditions
12:15 AM 46.9 °F - 16.3 °F 29% 29.90 in 10.0 mi NW 27.6 mph 33.4 mph N/A   Mostly Cloudy
12:35 AM 46.6 °F - 16.3 °F 30% 29.91 in 10.0 mi NNW 28.8 mph 34.5 mph N/A   Scattered Clouds
12:55 AM 46.0 °F 37.6 °F 16.2 °F 30% 29.92 in 10.0 mi NNW 24.2 mph 34.5 mph N/A   Clear
1:15 AM 45.1 °F 37.3 °F 17.4 °F 33% 29.91 in 10.0 mi NNW 19.6 mph 27.6 mph N/A   Mostly Cloudy
1:35 AM 44.8 °F 37.1 °F 16.5 °F 32% 29.91 in 10.0 mi NNW 18.4 mph 26.5 mph N/A   Overcast
1:55 AM 44.2 °F 37.0 °F 16.3 °F 33% 29.92 in 10.0 mi NW 16.1 mph - N/A   Mostly Cloudy
2:15 AM 43.7 °F 36.0 °F 15.4 °F 32% 29.94 in 10.0 mi NW 17.3 mph 24.2 mph N/A   Clear
2:35 AM 43.5 °F 34.7 °F 14.5 °F 31% 29.95 in 10.0 mi NW 21.9 mph 27.6 mph N/A   Clear
2:55 AM 43.0 °F 33.8 °F 14.5 °F 32% 29.96 in 10.0 mi NW 23.0 mph 29.9 mph N/A   Clear
3:15 AM 42.1 °F 32.8 °F 14.2 °F 32% 29.97 in 10.0 mi NW 21.9 mph 27.6 mph N/A   Clear
3:35 AM 41.4 °F 32.1 °F 14.5 °F 34% 29.97 in 10.0 mi NW 20.7 mph 28.8 mph N/A   Clear
3:55 AM 40.1 °F 30.7 °F 14.5 °F 35% 29.97 in 10.0 mi NW 19.6 mph 27.6 mph N/A   Clear
4:15 AM 39.2 °F 30.2 °F 15.3 °F 38% 29.98 in 10.0 mi NW 17.3 mph - N/A   Clear
4:35 AM 38.7 °F 28.8 °F 15.8 °F 39% 29.97 in 10.0 mi NW 19.6 mph 26.5 mph N/A   Clear
4:55 AM 39.0 °F 29.0 °F 15.8 °F 39% 29.97 in 10.0 mi NW 20.7 mph 27.6 mph N/A   Clear
5:15 AM 38.3 °F 29.0 °F 16.7 °F 42% 29.97 in 10.0 mi NW 17.3 mph - N/A   Clear
5:35 AM 37.4 °F 28.2 °F 17.2 °F 44% 29.98 in 10.0 mi NW 16.1 mph - N/A   Clear
5:55 AM 37.8 °F 27.7 °F 17.1 °F 43% 29.98 in 10.0 mi NW 19.6 mph 24.2 mph N/A   Clear
6:15 AM 38.3 °F 28.7 °F 16.9 °F 42% 29.98 in 10.0 mi NW 18.4 mph 24.2 mph N/A   Clear
6:35 AM 38.8 °F 29.1 °F 17.1 °F 41% 29.98 in 10.0 mi NW 19.6 mph 25.3 mph N/A   Clear
6:55 AM 39.9 °F 30.2 °F 17.8 °F 41% 30.00 in 10.0 mi NW 20.7 mph 26.5 mph N/A   Clear
7:15 AM 41.7 °F 32.3 °F 18.1 °F 39% 30.00 in 10.0 mi NW 21.9 mph 28.8 mph N/A   Clear
7:35 AM 42.6 °F 33.3 °F 18.3 °F 38% 30.00 in 10.0 mi NW 23.0 mph 31.1 mph N/A   Clear
7:55 AM 44.8 °F 36.2 °F 18.5 °F 35% 30.01 in 10.0 mi NW 23.0 mph 32.2 mph N/A   Clear
8:15 AM 46.4 °F 38.3 °F 18.7 °F 33% 30.01 in 10.0 mi NW 23.0 mph 28.8 mph N/A   Clear
8:35 AM 49.1 °F - 19.2 °F 31% 30.01 in 10.0 mi NW 19.6 mph 27.6 mph N/A   Clear
8:55 AM 50.2 °F - 18.7 °F 29% 30.01 in 10.0 mi NW 21.9 mph 26.5 mph N/A   Clear
9:15 AM 51.8 °F - 18.1 °F 27% 30.01 in 10.0 mi NW 20.7 mph 29.9 mph N/A   Clear
9:35 AM 53.2 °F - 15.4 °F 22% 30.01 in 10.0 mi NW 20.7 mph 28.8 mph N/A   Clear
9:55 AM 54.3 °F - 16.0 °F 22% 30.01 in 10.0 mi NW 17.3 mph 25.3 mph N/A   Clear
10:15 AM 55.4 °F - 15.8 °F 21% 30.01 in 10.0 mi NW 18.4 mph 25.3 mph N/A   Clear
10:35 AM 55.6 °F - 14.9 °F 20% 30.00 in 10.0 mi NW 15.0 mph 20.7 mph N/A   Clear
10:55 AM 56.3 °F - 13.5 °F 18% 30.00 in 10.0 mi NNW 8.1 mph 18.4 mph N/A   Clear
11:15 AM 57.9 °F - 13.1 °F 17% 29.99 in 10.0 mi WNW 10.4 mph 18.4 mph N/A   Clear
11:35 AM 58.6 °F - 15.1 °F 18% 29.98 in 10.0 mi WSW 13.8 mph 19.6 mph N/A   Clear
11:55 AM 58.5 °F - 16.9 °F 20% 29.98 in 10.0 mi WSW 11.5 mph 24.2 mph N/A   Clear
12:15 PM 58.6 °F - 15.8 °F 19% 29.97 in 10.0 mi SW 12.7 mph 19.6 mph N/A   Clear
12:55 PM 59.4 °F - 16.0 °F 18% 29.96 in 10.0 mi West 13.8 mph 17.3 mph N/A   Clear
1:15 PM 60.1 °F - 16.9 °F 19% 29.95 in 10.0 mi SW 6.9 mph - N/A   Clear
1:35 PM 61.3 °F - 16.9 °F 18% 29.94 in 10.0 mi SW 10.4 mph 18.4 mph N/A   Clear
1:55 PM 61.0 °F - 14.9 °F 17% 29.93 in 10.0 mi SW 10.4 mph - N/A   Clear
2:15 PM 61.2 °F - 14.4 °F 16% 29.93 in 10.0 mi West 11.5 mph 17.3 mph N/A   Clear
2:35 PM 61.9 °F - 13.8 °F 15% 29.92 in 10.0 mi Calm Calm - N/A   Clear
2:55 PM 61.9 °F - 13.5 °F 15% 29.92 in 10.0 mi West 9.2 mph - N/A   Clear
3:15 PM 62.6 °F - 13.3 °F 15% 29.91 in 10.0 mi West 6.9 mph - N/A   Clear
3:35 PM 63.1 °F - 10.9 °F 13% 29.90 in 10.0 mi WSW 3.5 mph - N/A   Clear
3:55 PM 63.9 °F - 13.1 °F 14% 29.89 in 10.0 mi South 4.6 mph - N/A   Clear
4:15 PM 63.1 °F - 12.7 °F 14% 29.88 in 10.0 mi South 8.1 mph - N/A   Clear
4:35 PM 63.9 °F - 12.7 °F 14% 29.89 in 10.0 mi WSW 9.2 mph - N/A   Clear
4:55 PM 63.7 °F - 14.0 °F 15% 29.89 in 10.0 mi South 5.8 mph - N/A   Clear
5:15 PM 63.7 °F - 14.9 °F 15% 29.89 in 10.0 mi South 9.2 mph - N/A   Clear
5:35 PM 62.6 °F - 14.9 °F 16% 29.88 in 10.0 mi South 5.8 mph - N/A   Clear
5:55 PM 62.6 °F - 17.6 °F 18% 29.89 in 10.0 mi SSE 6.9 mph - N/A   Clear
6:15 PM 61.9 °F - 19.8 °F 20% 29.88 in 10.0 mi South 9.2 mph - N/A   Clear
6:35 PM 61.2 °F - 21.4 °F 22% 29.88 in 10.0 mi South 8.1 mph - N/A   Clear
6:55 PM 58.5 °F - 22.6 °F 25% 29.88 in 10.0 mi South 8.1 mph - N/A   Clear
7:15 PM 55.4 °F - 23.5 °F 29% 29.88 in 10.0 mi SSE 4.6 mph - N/A   Clear
7:35 PM 54.7 °F - 25.9 °F 33% 29.88 in 10.0 mi South 4.6 mph - N/A   Clear
7:55 PM 53.4 °F - 26.1 °F 35% 29.89 in 10.0 mi South 5.8 mph - N/A   Clear
8:15 PM 53.2 °F - 25.0 °F 33% 29.89 in 10.0 mi SSE 4.6 mph - N/A   Clear
8:35 PM 52.3 °F - 25.7 °F 36% 29.89 in 10.0 mi Calm Calm - N/A   Clear
8:55 PM 52.3 °F - 24.1 °F 33% 29.90 in 10.0 mi ESE 4.6 mph - N/A   Clear
9:15 PM 53.4 °F - 22.3 °F 30% 29.91 in 10.0 mi Calm Calm - N/A   Clear
9:35 PM 54.5 °F - 21.2 °F 27% 29.91 in 10.0 mi Calm Calm - N/A   Clear
9:55 PM 52.9 °F - 21.2 °F 29% 29.91 in 10.0 mi Calm Calm - N/A   Clear
10:15 PM 53.6 °F - 21.2 °F 28% 29.91 in 10.0 mi SE 3.5 mph - N/A   Clear
10:35 PM 51.1 °F - 23.5 °F 34% 29.91 in 10.0 mi SSE 5.8 mph - N/A   Clear
10:55 PM 48.2 °F - 26.4 °F 43% 29.91 in 10.0 mi South 5.8 mph - N/A   Clear
11:15 PM 46.9 °F - 26.6 °F 45% 29.91 in 10.0 mi Calm Calm - N/A   Clear
11:35 PM 47.5 °F - 26.8 °F 45% 29.91 in 10.0 mi Calm Calm - N/A   Clear
11:55 PM 48.4 °F - 27.0 °F 43% 29.91 in 10.0 mi SW 3.5 mph - N/A   Clear